STARLINK-1788, 46689

Orbit data source: Space-Track

STARLINK-1788, 46689 is a payload satellite owned by SpaceX/Seattle (US) in LEO that was launched on Sun, 18 Oct 2020 UTC via an FALCON 9 launch vehicle from the Air Force Eastern Test Range (AFETR). Payload-class satellites include a variety of spacecraft equipped with specific instruments for various scientific and technological missions. These include communications satellites like Starlink; space stations such as the ISS; scientific satellites like the Hubble; Earth observation satellites from companies like Planet Labs, Umbra, and HawkEye 360; GPS; miniature CubeSats for education and research; and military/defense satellites.

Loading next visibility...
Identifier
46689, 2020-073V
Orbit
LEO
Country
Flag of USUS
Related business
Manufacturer
SpaceX/Seattle
Mission
Operational Commercial Communications
Bus & Motor
STARLINK, Unknown motor
Mass
260 kg wet, ~248 kg dry
Launch date (UTC)
2020-10-18 (5 years ago)
Launch vehicle
FALCON 9
Launch site
Air Force Eastern Test Range (AFETR)
Object type
Payload
Rocket body
Debris
Shape & HBR
Box + 1 Pan, 4.4 m
Radar Cross Section
13.562 m², Large (>1 m²)

Expand to show TLE details & history
Last TLE update: 13 hours ago

TLE from 13 hours ago
0 STARLINK-1788
1 46689U 20073V   25261.70896999  .00001988  00000-0  15233-3 0  9991
2 46689  53.0542 309.3254 0001345  86.8414 273.2729 15.06389044272232
Epoch: 2025-09-18T17:00Z
TLE epoch observation values (Epoch: 2025-09-18T17:00:55.007Z)
Latitude
0.00001°
Longitude
56.22953°
Altitude
548.071 km
Speed
7.589 km/s
True Right ascension
20h 37m 18s
True Declination
0° 00' 00"
Sunlit
Object was in full shadow at epoch
Visualization orbit readout
Latitude
Unknown
Longitude
Unknown
Altitude
Unknown
Speed
Unknown
Apparent Right ascension
Unknown
Apparent Declination
Unknown
Sunlit
N/A
Visualization observer readout
Local Sidereal Time
22:27:04
Azimuth
Unknown
Elevation
Unknown
Doppler factor
Unknown
Orbital elements
Apogee altitude
548.447 km
Perigee altitude
546.584 km
Semi-major axis
6,925.653 km
Eccentricity
0.00013
Inclination
53.0542°
RAAN
309.3254°
Arg. of periapsis
86.8414°
True anomaly
273.25751°
Mean anomaly
273.2729°
Eccentric anomaly
273.26521°
Mean motion
3.76576 °/min
Orbital period
95.6 mins
BSTAR
0.00015233
Loading maneuver chart data...
Computing Atmospheric mass density...

Documentation

Showing up to 5 results
|